FLOCK 4Q 32

导读

FLOCK 4Q 32是美国Planet公司鸽群(Flock)星座下的一颗3U立方体商业遥感卫星,于2023年11月11日发射入轨。作为PlanetScope星座的一员,它延续了鸽群卫星典型设计,重量约5kg,配备成像设备,可提供3米分辨率光学遥感影像。该卫星旨在补充星座在轨规模,助力实现每日更新全球陆地影像的能力,为环境监测、农业、城市规划等领域提供高频次地球观测数据。

基本信息
目录编号:
58310
目录名称:
FLOCK 4Q 32
国际标识:
2023-174BG
轨道中心:
EARTH
卫星名称:
FLOCK 4Q 32
卫星全名:
--
卫星状态:
已陨落 最后检测时间 2025-04-10
发射日期:
2023-11-11 UTC
国别 :
美国 (US)
星等 :
--
轨道信息
数据来源 国际轨道数据
星历时间: 2025-04-07T12:43:56+0800
轨道信息已过期430天
半长轴: 6589.954km
偏心率: 0.0014255
轨道倾角: 97.388°
近地点辐角 271.436°
升交点赤经 185.386°
平近点角 88.529°
近地点: 202.425km
远地点: 221.213km
周期: 88.733分钟
每日圈数: 16.228531
详细信息
使用方式:
暂无